Home > Weather > Niagara Falls > Past weeks

Flag for Canada Past Weather in Niagara Falls, Ontario, Canada — Yesterday and Last 2 Weeks

Now
72 °F

Clear.


Feels Like: 74 °F
Forecast: 70 / 82 °F
Wind: 6 mph from North

Location: Niagara Falls International Airport

Current Time: Jul 29, 2016 at 3:53:37 AM

Latest Report: Jul 29, 2016 at 2:53 AM


Visibility: 10 mi

Pressure: 29.88 "Hg

Humidity: 73%

Dew Point: 63 °F

Location of Niagara FallsLocation

Past Weather in Niagara Falls — Graph

°F

Niagara Falls Temperature Yesterday

Maximum temperature yesterday: 87 °F (at 1:53 PM)
Minimum temperature yesterday: 69 °F (at 5:53 AM)
Average temperature yesterday: 78 °F

High & Low Weather Summary for the Past Weeks

 TemperatureHumidityPressure
High95 °F (Jul 22, 3:53 PM)88% (Jul 14, 3:53 AM)30.27 "Hg (Jul 14, 3:53 AM)
Low55 °F (Jul 20, 5:53 AM)25% (Jul 17, 12:53 PM)29.74 "Hg (Jul 14, 6:53 PM)
Average77 °F58%29.97 "Hg
* Reported Jul 14 1:53 AM — Jul 29 1:53 AM, Niagara Falls, Weather by CustomWeather, © 2016

Note: Actual official high and low records may vary slightly from our data, if they occured in-between our weather recording intervals... More about our weather records

Advertising

Niagara Falls Weather History for the Previous 24 Hours

Scroll right to see more
 ConditionsComfort  
Time TempWeatherWind HumidityBarometerVisibility
1:53 AM
Fri, Jul 29
72 °FClear.5 mph66%29.88 "Hg10 mi
12:53 AM74 °FPassing clouds.No wind64%29.88 "Hg10 mi
11:53 PM
Thu, Jul 28
75 °FPassing clouds.3 mph64%29.88 "Hg10 mi
10:53 PM74 °FMostly cloudy.No wind67%29.88 "Hg10 mi
9:53 PM77 °FMostly cloudy.No wind58%29.89 "Hg10 mi
8:53 PM78 °FMore clouds than sun.5 mph54%29.87 "Hg10 mi
7:53 PM80 °FMore clouds than sun.5 mph49%29.87 "Hg10 mi
6:53 PM82 °FOvercast.8 mph44%29.86 "Hg10 mi
5:53 PM83 °FOvercast.8 mph44%29.85 "Hg10 mi
4:53 PM84 °FOvercast.12 mph46%29.85 "Hg10 mi
3:53 PM85 °FMore clouds than sun.13 mph43%29.87 "Hg10 mi
2:53 PM86 °FMore clouds than sun.9 mph49%29.86 "Hg10 mi
1:53 PM87 °FMore clouds than sun.3 mph40%29.88 "Hg10 mi
12:53 PM86 °FCloudy.9 mph45%29.88 "Hg10 mi
11:53 AM83 °FCloudy.No wind50%29.89 "Hg10 mi
10:53 AM83 °FBroken clouds.5 mph55%29.90 "Hg10 mi
9:53 AM80 °FBroken clouds.5 mph62%29.91 "Hg10 mi
8:53 AM77 °FBroken clouds.No wind71%29.92 "Hg10 mi
7:53 AM74 °FFog.No wind82%29.91 "Hg6 mi
6:59 AM70 °FFog.No wind87%29.92 "Hg3 mi
5:53 AM69 °FPassing clouds.3 mph84%29.89 "Hg8 mi
4:53 AM70 °FClear.No wind84%29.89 "Hg9 mi
3:53 AM71 °FClear.No wind81%29.88 "Hg9 mi
Weather by CustomWeather, © 2016

See weather overviewHow to use our weather pages